SCP
0 0 0 0 0 0 0 0 0 0 0 0 0 0 0 0 0 0 0 0 0 0 0 0 0 0 0 0 0 0 0 0 0 0 0 0 0 0 0 0 0 0 0
0 0 0 0 0 0 0 0 0 0 0 0 0 0 0 0 0 0 0 0 0 0 0 0 0 0 0 0 0 0 0 0 0 0 0 0 0 0 0 0 0 0 0
0 0 0 0 0 0 0 0 0 0 0 0 0 0 0 0 0 0 0 0 0 0 0 0 0 0 0 0 0 0 0 0 0 0 0 0 0 0 0 0 0 0 0
0 0 0 0 0 0 0 0 0 0 0 0 0 0 0 0 0 0 0 0 0 0 0 0 0 0 0 0 0 0 0 0 0 0 0 0 0 0 0 0 0 0 0
0 0 0 0 0 0 0 0 0 0 0 0 0 0 0 0 0 0 0 0 0 0 0 0 0 0 0 0 0 0 0 0 0 0 0 0 0 0 0 0 0 0 0
0 0 0 0 0 0 0 0 0 0 0 0 0 0 0 0 0 0 0 0 0 0 0 0 0 0 0 0 0 0 0 0 0 0 0 0 0 0 0 0 0 0 0
0 0 0 0 0 0 0 0 0 0 0 0 0 0 0 0 0 0 0 0 0 0 0 0 0 0 0 0 0 0 0 0 0 0 0 0 0 0 0 0 0 0 0
0 0 0 0 0 0 0 0 0 0 0 0 0 0 0 0 0 0 0 0 0 0 0 0 0 0 0 0 0 0 0 0 0 0 0 0 0 0 0 0 0 0 0
0 0 0 0 0 0 0 0 0 0 0 0 0 0 0 0 0 0 0 0 0 0 0 0 0 0 0 0 0 0 0 0 0 0 0 0 0 0 0 0 0 0 0
0 0 0 0 0 0 0 0 0 0 0 0 0 0 0 0 0 0 0 0 0 0 0 0 0 0 0 0 0 0 0 0 0 0 0 0 0 0 0 0 0 0 0
0 0 0 0 0 0 0 0 0 0 0 0 0 0 0 0 0 0 0 0 0 0 0 0 0 0 0 0 0 0 0 0 0 0 0 0 0 0 0 0 0 0 0
0 0 0 0 0 0 0 0 0 0 0 0 0 0 0 0 0 0 0 0 0 0 0 0 0 0 0 0 0 0 0 0 0 0 0 0 0 0 0 0 0 0 0
0 0 0 0 0 0 0 0 0 0 0 0 0 0 0 0 0 0 0 0 0 0 0 0 0 0 0 0 0 0 0 0 0 0 0 0 0 0 0 0 0 0 0
0 0 0 0 0 0 0 0 0 0 0 0 0 0 0 0 0 0 0 0 0 0 0 0 0 0 0 0 0 0 0 0 0 0 0 0 0 0 0 0 0 0 0
0 0 0 0 0 0 0 0 0 0 0 0 0 0 0 0 0 0 0 0 0 0 0 0 0 0 0 0 0 0 0 0 0 0 0 0 0 0 0 0 0 0 0
0 0 0 0 0 0 0 0 0 0 0 0 0 0 0 0 0 0 0 0 0 0 0 0 0 0 0 0 0 0 0 0 0 0 0 0 0 0 0 0 0 0 0
0 0 0 0 0 0 0 0 0 0 0 0 0 0 0 0 0 0 0 0 0 0 0 0 0 0 0 0 0 0 0 0 0 0 0 0 0 0 0 0 0 0 0
0 0 0 0 0 0 0 0 0 0 0 0 0 0 0 0 0 0 0 0 0 0 0 0 0 0 0 0 0 0 0 0 0 0 0 0 0 0 0 0 0 0 0
0 0 0 0 0 0 0 0 0 0 0 0 0 0 0 0 0 0 0 0 0 0 0 0 0 0 0 0 0 0 0 0 0 0 0 0 0 0 0 0 0 0 0
0 0 0 0 0 0 0 0 0 0 0 0 0 0 0 0 0 0 0 0 0 0 0 0 0 0 0 0 0 0 0 0 0 0 0 0 0 0 0 0 0 0 0
0 0 0 0 0 0 0 0 0 0 0 0 0 0 0 0 0 0 0 0 0 0 0 0 0 0 0 0 0 0 0 0 0 0 0 0 0 0 0 0 0 0 0
0 0 0 0 0 0 0 0 0 0 0 0 0 0 0 0 0 0 0 0 0 0 0 0 0 0 0 0 0 0 0 0 0 0 0 0 0 0 0 0 0 0 0
0 0 0 0 0 0 0 0 0 0 0 0 0 0 0 0 0 0 0 0 0 0 0 0 0 0 0 0 0 0 0 0 0 0 0 0 0 0 0 0 0 0 0
0 0 0 0 0 0 0 0 0 0 0 0 0 0 0 0 0 0 0 0 0 0 0 0 0 0 0 0 0 0 0 0 0 0 0 0 0 0 0 0 0 0 0
0 0 0 0 0 0 0 0 0 0 0 0 0 0 0 0 0 0 0 0 0 0 0 0 0 0 0 0 0 0 0 0 0 0 0 0 0 0 0 0 0 0 0
0 0 0 0 0 0 0 0 0 0 0 0 0 0 0 0 0 0 0 0 0 0 0 0 0 0 0 0 0 0 0 0 0 0 0 0 0 0 0 0 0 0 0
Wind_Speed
7 7 7 7 7 7 7 7 7 6 6 6 6 5 4 4 3 2 2 2 3 3 4 5 5 5 4 3 3 4 4 4 4 2 2 3 5 5 5 5 5 5 6
6 6 6 7 6 7 7 8 7 7 6 6 5 5 4 4 3 2 2 2 3 3 4 4 5 4 5 4 4 4 4 5 5 4 3 3 4 5 6 6 4 4 5
5 5 6 6 7 8 8 7 7 7 7 7 6 5 5 4 3 2 2 2 3 3 4 4 4 4 5 4 4 4 4 4 4 4 3 2 2 4 5 6 6 4 5
4 5 5 6 6 7 7 7 7 8 7 7 7 6 6 5 4 3 3 2 2 2 3 3 4 4 4 4 4 5 4 5 5 4 4 4 3 4 5 5 5 4 4
3 4 5 6 5 6 6 7 7 8 8 7 7 7 7 5 6 6 4 3 2 2 2 2 1 2 2 2 2 3 4 5 5 5 5 5 4 5 5 5 5 5 4
3 4 4 5 5 5 6 6 7 7 7 7 7 7 7 6 8 8 7 3 2 2 1 1 1 2 2 3 2 2 3 4 5 5 4 6 6 6 5 6 6 6 4
2 2 3 4 4 5 5 6 6 6 7 8 8 7 6 7 8 8 7 4 3 2 2 1 0 0 2 2 3 4 4 4 5 5 6 6 6 6 7 8 7 6 4
2 2 2 3 4 4 5 5 6 6 6 6 7 7 6 7 9 9 8 4 3 3 2 2 1 1 2 1 1 2 2 2 3 4 4 4 4 5 7 6 6 6 6
2 2 2 2 3 4 4 5 5 5 5 5 6 6 6 6 9 9 8 3 3 4 4 4 3 3 4 3 1 1 1 2 3 3 3 4 5 6 7 6 7 7 5
2 2 2 2 2 3 4 4 4 4 4 4 4 5 6 6 8 9 9 3 3 3 4 4 6 6 5 5 1 2 2 2 3 5 5 6 6 8 8 6 6 6 5
3 3 3 3 3 3 3 3 3 3 4 4 4 4 4 5 6 8 9 4 4 3 3 3 5 7 6 6 3 3 3 2 3 4 4 4 4 4 4 4 4 4 5
4 4 4 4 3 3 3 3 3 3 3 3 3 3 3 3 4 6 7 7 6 3 3 3 4 6 6 6 4 5 3 2 3 4 4 4 4 3 4 4 4 3 2
6 6 5 5 4 4 4 4 3 3 3 3 3 3 2 2 2 2 3 4 5 3 3 5 4 3 2 3 5 3 1 2 3 3 4 3 3 4 4 4 5 6 6
7 7 6 6 5 5 4 4 4 4 3 3 3 3 2 2 2 1 1 0 1 1 1 2 2 2 1 2 2 1 2 2 2 3 3 3 3 4 4 4 5 5 5
9 8 7 6 6 5 5 4 5 4 3 4 4 3 3 3 2 4 4 3 3 2 2 1 1 1 1 2 2 2 2 2 3 3 3 4 3 3 3 3 3 4 4
9 8 6 6 5 6 6 5 8 8 5 7 8 7 5 3 2 3 4 4 4 4 4 2 2 1 1 1 1 2 2 2 3 3 3 4 4 4 4 4 4 4 4
10 8 7 7 6 6 6 6 6 7 11 11 11 11 11 7 6 6 6 5 5 5 5 4 3 3 2 2 2 2 3 3 3 3 3 3 4 4 4 4 4 4 4
10 9 8 7 7 7 7 7 7 7 6 6 10 13 12 11 10 9 7 6 6 7 6 5 4 4 4 3 3 3 3 3 4 4 4 4 4 4 4 4 4 5 5
8 7 7 8 8 8 8 8 8 8 8 7 6 8 11 11 10 9 8 8 7 6 6 6 5 5 5 5 4 4 5 4 5 5 5 5 5 5 5 5 4 5 4
7 9 9 8 8 8 8 9 9 9 9 8 8 7 7 8 8 8 9 9 8 8 7 7 6 6 6 6 5 6 6 6 6 6 6 6 5 6 6 6 6 6 6
7 7 8 8 9 9 9 9 9 9 9 9 9 8 8 8 9 9 9 9 9 9 8 8 7 7 7 6 6 7 8 7 7 7 6 6 6 6 6 6 6 6 6
7 7 7 7 7 8 9 9 10 10 10 11 9 8 11 10 10 9 9 9 9 9 9 8 8 7 8 8 8 8 8 8 8 8 7 7 7 7 7 7 7 7 7
8 8 8 7 7 8 8 9 10 10 10 10 10 9 8 10 10 10 10 10 9 9 9 9 9 9 9 9 9 9 9 9 8 9 8 8 8 8 8 8 9 9 8
8 8 8 8 8 8 8 9 9 10 10 10 10 10 9 9 10 11 11 10 10 10 10 9 10 13 15 11 9 9 10 9 9 9 12 10 9 8 8 8 9 10 9
9 9 9 8 8 8 8 9 9 10 10 10 10 9 10 10 10 10 10 10 11 11 12 12 10 12 16 17 14 12 11 12 10 8 9 10 11 11 10 10 9 10 10
10 10 9 9 9 9 9 9 9 10 9 9 9 9 9 9 9 10 9 9 10 10 11 11 13 15 16 15 17 16 14 15 15 13 10 9 11 10 11 10 12 11 11
Wind_Direction
347 348 348 351 349 346 348 348 342 344 344 341 340 336 328 324 312 297 285 270 248 241 235 229 224 218 214 209 208 209 214 214 213 191 180 188 196 193 174 183 177 172 163
344 345 350 350 353 351 353 350 346 348 347 347 343 340 335 324 311 304 287 275 257 248 247 244 236 221 219 216 213 214 213 215 213 197 184 188 200 187 178 174 173 172 160
344 347 351 356 357 355 353 354 354 354 353 353 354 349 345 338 328 309 292 274 263 252 248 245 240 231 228 217 217 215 211 209 204 195 189 187 188 179 173 167 161 151 147
339 349 355 357 355 351 352 357 358 359 359 1 1 358 354 349 343 334 327 314 289 277 270 252 242 234 234 229 222 214 205 202 200 194 187 187 182 177 175 165 157 149 141
334 347 354 356 357 354 355 358 1 2 1 5 5 6 7 3 3 351 347 344 346 338 313 288 261 257 261 255 245 220 207 203 198 200 194 189 185 183 182 169 158 143 133
331 350 353 349 357 356 354 358 3 1 2 5 6 8 8 15 15 4 343 350 350 341 332 292 216 196 192 213 234 244 233 213 205 201 203 196 191 185 175 169 158 159 151
325 347 343 348 356 351 351 358 359 1 6 4 9 9 13 21 16 9 353 338 354 356 354 2 5 111 238 210 185 198 205 218 226 219 210 202 189 181 176 175 174 167 145
310 329 344 343 350 348 349 352 351 357 4 4 8 9 15 22 16 5 344 346 13 21 30 32 40 61 51 328 225 206 200 207 211 210 205 197 188 180 178 172 153 128 109
279 301 321 329 338 342 346 347 347 352 358 1 10 6 9 22 20 5 345 14 23 28 33 34 26 52 43 350 265 145 121 93 86 101 114 128 130 140 148 148 150 150 142
250 267 283 299 312 325 336 338 342 342 344 346 4 2 9 16 25 10 350 8 22 29 31 44 55 39 26 359 29 114 116 104 114 117 119 133 140 141 152 166 165 163 146
236 243 247 256 273 297 313 320 325 334 337 340 354 359 8 16 26 22 3 1 14 20 27 33 50 41 34 26 15 69 77 89 117 117 115 118 125 133 147 152 160 169 160
229 237 243 251 261 269 278 293 302 311 315 327 335 350 358 28 27 29 17 11 352 17 28 32 49 42 41 39 51 64 69 98 116 118 117 117 121 122 125 125 123 115 113
230 236 241 244 244 252 263 268 274 279 296 318 328 337 348 1 51 71 25 15 0 2 38 46 38 39 59 91 77 60 112 123 117 117 112 106 107 117 118 114 108 99 93
237 243 240 244 244 238 243 258 266 274 280 289 302 314 324 324 333 354 5 126 158 186 107 113 128 55 75 85 119 112 85 77 101 117 118 121 125 135 141 142 139 139 127
244 245 244 242 249 254 243 247 259 262 276 283 294 295 298 304 19 1 323 331 340 354 321 251 207 175 153 135 124 109 128 144 135 138 143 144 145 144 144 150 162 168 164
250 250 247 243 238 243 249 240 219 237 238 236 252 273 276 266 272 264 277 296 307 304 281 249 233 218 198 181 173 162 166 162 157 160 159 158 160 159 157 163 177 178 167
250 252 249 246 241 238 241 251 253 224 222 233 236 237 246 257 242 243 248 255 260 259 251 248 241 232 220 208 202 200 192 179 176 178 173 171 170 170 171 171 175 175 171
256 254 252 247 245 244 242 243 248 257 249 235 219 220 226 234 237 238 236 241 235 226 239 243 240 235 229 224 217 210 202 194 193 192 188 186 184 186 183 182 182 183 177
262 259 253 252 247 246 244 243 244 246 250 253 247 209 207 219 225 228 219 234 244 239 233 234 235 232 227 223 219 216 212 208 204 201 197 196 195 196 195 192 183 170 192
271 265 261 259 253 247 242 242 242 242 244 247 245 242 206 202 220 214 212 227 237 240 237 233 229 228 224 220 215 213 214 212 209 210 205 202 203 204 201 199 194 189 197
288 277 250 254 255 253 248 245 245 244 245 245 245 239 220 225 234 236 228 225 230 234 234 232 228 222 221 218 215 215 216 215 212 211 207 204 205 206 208 205 201 202 199
303 296 285 270 264 259 257 254 251 249 248 248 249 233 199 225 240 240 237 233 231 232 233 229 226 222 217 216 216 218 218 217 214 211 210 206 206 209 209 209 207 202 201
317 311 303 293 284 275 265 261 257 254 252 250 247 245 226 226 234 238 238 237 234 230 227 225 227 224 218 217 218 220 221 219 215 211 210 209 209 209 208 209 208 207 206
332 327 320 313 304 295 285 277 270 264 259 257 252 248 244 239 239 240 240 238 233 230 226 223 226 227 223 217 216 217 221 221 216 214 213 214 211 212 210 210 210 210 212
343 339 334 328 321 313 304 296 288 281 273 265 260 256 251 247 245 244 242 239 236 233 230 226 225 228 230 223 217 216 209 205 210 213 208 212 215 213 213 213 211 211 212
352 348 343 338 334 327 320 313 306 300 291 283 276 269 262 256 253 250 246 242 239 236 234 230 228 227 227 227 223 217 202 196 199 206 211 212 213 214 212 214 214 214 213